EW9592 Weather Reports


Display with metric or nautical units.
time (UTC)temp
F
wind
direction
speed
MPH
gust
MPH
rain 1hr
in
rain 24hr
in
rain mn
in
humidity
%
barometer
mb
20260901233013 83 134 0.0 0.0 0.00 0.00 0.00 83 1017.0
20260901231513 84 134 0.0 0.0 0.00 0.00 0.00 82 1017.0
20260901230012 85 134 0.0 0.0 0.00 0.00 0.00 79 1017.0
20260901224512 86 134 0.0 0.0 0.00 0.00 0.00 77 1017.1
20260901223012 87 134 0.0 0.0 0.00 0.00 0.00 75 1017.0
20260901221510 87 134 0.0 0.0 0.00 0.00 0.00 72 1016.8
20260901220010 89 134 0.0 1.0 0.00 0.00 0.00 75 1016.8
20260901214531 89 141 0.0 0.0 0.00 0.00 0.00 73 1016.7
20260901213009 89 141 0.0 1.0 0.00 0.00 0.00 69 1016.7
20260901211509 89 278 0.0 0.0 0.00 0.00 0.00 69 1016.8
20260901210009 90 141 0.0 0.0 0.00 0.00 0.00 68 1016.9
20260901204505 91 141 0.0 1.0 0.00 0.00 0.00 61 1017.0
20260901203004 92 105 0.0 1.0 0.00 0.00 0.00 64 1017.1
20260901201501 92 236 0.0 1.0 0.00 0.00 0.00 59 1017.3
20260901200111 92 11 0.0 2.0 0.00 0.00 0.00 58 1017.4
20260901194559 92 311 0.0 2.0 0.00 0.00 0.00 62 1017.5
20260901193057 92 129 1.0 4.0 0.00 0.00 0.00 56 1017.5
20260901191557 91 278 0.0 3.0 0.00 0.00 0.00 65 1017.7
20260901190056 91 45 0.0 1.0 0.00 0.00 0.00 67 1017.9
20260901184605 90 153 0.0 2.0 0.00 0.00 0.00 60 1018.2
20260901183105 92 142 0.0 1.0 0.00 0.00 0.00 62 1018.3
20260901181552 91 341 0.0 3.0 0.00 0.00 0.00 55 1018.5
20260901180051 91 113 0.0 2.0 0.00 0.00 0.00 66 1018.5
20260901174550 90 128 0.0 3.0 0.00 0.00 0.00 62 1018.6
20260901173048 89 214 0.0 1.0 0.00 0.00 0.00 65 1018.8
20260901171556 90 85 0.0 2.0 0.00 0.00 0.00 66 1018.9
20260901170049 91 67 1.0 2.0 0.00 0.00 0.00 62 1018.9
20260901164545 91 97 0.0 2.0 0.00 0.00 0.00 66 1019.1
20260901163052 90 114 0.0 3.0 0.00 0.00 0.00 65 1019.0
20260901161538 89 207 0.0 4.0 0.00 0.00 0.00 69 1019.2
20260901160038 88 176 0.0 2.0 0.00 0.00 0.00 70 1019.4
20260901154549 88 159 0.0 3.0 0.00 0.00 0.00 74 1019.4
20260901153039 86 117 0.0 2.0 0.00 0.00 0.00 75 1019.4
20260901151524 84 198 0.0 3.0 0.00 0.00 0.00 79 1019.4
20260901150021 82 132 0.0 1.0 0.00 0.00 0.00 84 1019.6
20260901144517 80 130 0.0 1.0 0.00 0.00 0.00 87 1019.7
20260901143011 78 124 0.0 2.0 0.00 0.00 0.00 90 1019.6
20260901141507 77 187 0.0 1.0 0.00 0.00 0.00 91 1019.5
20260901140003 76 140 0.0 0.0 0.00 0.00 0.00 91 1019.7
20260901134600 74 140 0.0 2.0 0.00 0.00 0.00 92 1019.7
20260901133055 73 80 0.0 0.0 0.00 0.00 0.00 92 1019.8
20260901131553 72 79 0.0 0.0 0.00 0.00 0.00 92 1019.8
20260901130050 71 79 0.0 0.0 0.00 0.00 0.00 92 1019.9
20260901124551 70 79 0.0 0.0 0.00 0.00 0.00 92 1019.8
20260901123053 69 79 0.0 0.0 0.00 0.00 0.00 92 1019.8
20260901121548 69 186 0.0 0.0 0.00 0.00 0.00 92 1019.8
20260901120100 69 186 0.0 0.0 0.00 0.00 0.00 92 1019.7
20260901114550 68 186 0.0 0.0 0.00 0.00 0.00 92 1019.5
20260901113054 68 186 0.0 0.0 0.00 0.00 0.00 92 1019.2
20260901111540 68 185 0.0 0.0 0.00 0.00 0.00 92 1019.0
20260901110048 68 185 0.0 0.0 0.00 0.00 0.00 92 1018.7
20260901104538 69 186 0.0 0.0 0.00 0.00 0.00 92 1018.6
20260901103043 69 185 0.0 0.0 0.00 0.00 0.00 92 1018.5
20260901101537 69 185 0.0 0.0 0.00 0.00 0.00 92 1018.4
20260901100033 69 186 0.0 0.0 0.00 0.00 0.00 92 1018.3
20260901094533 69 186 0.0 0.0 0.00 0.00 0.00 92 1018.1
20260901093032 69 186 0.0 0.0 0.00 0.00 0.00 92 1017.9
20260901091531 69 186 0.0 0.0 0.00 0.00 0.00 92 1017.8
20260901090030 69 186 0.0 0.0 0.00 0.00 0.00 92 1017.7
20260901084530 70 186 0.0 0.0 0.00 0.00 0.00 92 1017.6
20260901083029 70 186 0.0 0.0 0.00 0.00 0.00 92 1017.7
20260901081528 70 185 0.0 0.0 0.00 0.00 0.00 92 1017.5
20260901080036 70 186 0.0 0.0 0.00 0.00 0.00 92 1017.4
20260901074527 70 185 0.0 0.0 0.00 0.00 0.00 92 1017.4
20260901073025 70 186 0.0 0.0 0.00 0.00 0.00 91 1017.4
20260901071524 70 186 0.0 0.0 0.00 0.00 0.00 91 1017.5
20260901070022 70 186 0.0 0.0 0.00 0.00 0.00 91 1017.7
20260901064525 71 185 0.0 0.0 0.00 0.00 0.00 91 1017.9
20260901063041 71 186 0.0 0.0 0.00 0.00 0.00 91 1017.9
20260901061517 71 186 0.0 0.0 0.00 0.00 0.00 91 1018.1
20260901060016 71 186 0.0 0.0 0.00 0.00 0.00 91 1018.2
20260901054515 71 186 0.0 0.0 0.00 0.00 0.00 91 1018.2
20260901053013 71 186 0.0 0.0 0.00 0.00 0.00 91 1018.3
20260901051511 72 186 0.0 0.0 0.00 0.00 0.00 91 1018.4
20260901050011 72 186 0.0 0.0 0.00 0.00 0.00 91 1018.4
20260901044510 72 186 0.0 0.0 0.00 0.00 0.00 91 1018.4
20260901043007 72 186 0.0 0.0 0.00 0.00 0.00 91 1018.3
20260901041501 72 186 0.0 0.0 0.00 0.00 0.00 91 1018.3
20260901040058 73 186 0.0 0.0 0.00 0.00 0.00 91 1018.3
20260901034557 73 186 0.0 0.0 0.00 0.00 0.00 91 1018.2
20260901033059 73 186 0.0 0.0 0.00 0.00 0.00 91 1018.2
20260901031556 73 186 0.0 0.0 0.00 0.00 0.00 91 1018.1
20260901030055 74 186 0.0 0.0 0.00 0.00 0.00 91 1018.1
20260901024555 74 185 0.0 0.0 0.00 0.00 0.00 90 1018.1
20260901023054 74 186 0.0 0.0 0.00 0.00 0.00 90 1018.1
20260901021554 74 186 0.0 0.0 0.00 0.00 0.00 90 1018.0
20260901020056 75 186 0.0 0.0 0.00 0.00 0.00 90 1017.8
20260901014554 75 186 0.0 0.0 0.00 0.00 0.00 90 1017.5
20260901013102 76 186 0.0 0.0 0.00 0.00 0.00 90 1017.4
20260901011552 76 186 0.0 0.0 0.00 0.00 0.00 89 1017.3
20260901010056 77 186 0.0 0.0 0.00 0.00 0.00 89 1017.1
20260901004552 78 186 0.0 0.0 0.00 0.00 0.00 89 1017.1
20260901003051 79 186 0.0 0.0 0.00 0.00 0.00 88 1017.1
20260901001550 80 186 0.0 0.0 0.00 0.00 0.00 88 1017.0
20260901000049 81 186 0.0 0.0 0.00 0.00 0.00 87 1017.0
20260831234553 81 186 0.0 0.0 0.00 0.00 0.00 86 1017.1